Previsão horária em Abisynia

Hoje, 18 Maio, Terça-feira

Tempo Temperatura Precipitação Vento Pressão Humidade
00:00 +12°C° 0 mm 1 m/s 733 mmHg 86%
01:00 +11°C° 0 mm 1 m/s 733 mmHg 87%
02:00 +10°C° 0 mm 0 m/s 733 mmHg 87%
03:00 +11°C° 0 mm 1 m/s 733 mmHg 88%
04:00 +11°C° 0 mm 1 m/s 733 mmHg 89%
05:00 +11°C° 0 mm 1 m/s 733 mmHg 89%
06:00 +12°C° 0 mm 1 m/s 733 mmHg 86%
07:00 +14°C° 0 mm 2 m/s 733 mmHg 82%
08:00 +16°C° 0 mm 2 m/s 733 mmHg 79%
09:00 +16°C° 0.4 mm 2 m/s 733 mmHg 74%
10:00 +17°C° 0.4 mm 3 m/s 733 mmHg 70%
11:00 +18°C° 0.4 mm 3 m/s 733 mmHg 66%
12:00 +18°C° 0.6 mm 4 m/s 733 mmHg 67%
13:00 +17°C° 0.6 mm 5 m/s 733 mmHg 68%
14:00 +19°C° 0.6 mm 5 m/s 733 mmHg 69%
15:00 +16°C° 0.9 mm 5 m/s 734 mmHg 76%
16:00 +15°C° 0.9 mm 6 m/s 734 mmHg 83%
17:00 +14°C° 0.9 mm 6 m/s 734 mmHg 89%
18:00 +13°C° 1 mm 6 m/s 734 mmHg 90%
19:00 +13°C° 1 mm 6 m/s 735 mmHg 92%
20:00 +11°C° 1 mm 7 m/s 735 mmHg 93%
21:00 +11°C° 0.2 mm 7 m/s 735 mmHg 93%
22:00 +11°C° 0.2 mm 7 m/s 735 mmHg 92%
23:00 +10°C° 0.2 mm 7 m/s 736 mmHg 92%

Amanhã, 19 Maio, Quarta-feira

Tempo Temperatura Precipitação Vento Pressão Humidade
00:00 +10°C° 0.1 mm 7 m/s 736 mmHg 93%
01:00 +10°C° 0.1 mm 6 m/s 736 mmHg 93%
02:00 +10°C° 0.1 mm 6 m/s 736 mmHg 94%
03:00 +9°C° 0.1 mm 6 m/s 736 mmHg 94%
04:00 +9°C° 0.1 mm 6 m/s 737 mmHg 94%
05:00 +9°C° 0.1 mm 6 m/s 737 mmHg 95%
06:00 +9°C° 0.1 mm 6 m/s 737 mmHg 94%
07:00 +9°C° 0.1 mm 6 m/s 738 mmHg 93%
08:00 +9°C° 0.1 mm 6 m/s 738 mmHg 92%
09:00 +10°C° 0.1 mm 6 m/s 738 mmHg 88%
10:00 +11°C° 0.1 mm 6 m/s 738 mmHg 85%
11:00 +12°C° 0.1 mm 5 m/s 739 mmHg 81%
12:00 +13°C° 0.1 mm 5 m/s 739 mmHg 78%
13:00 +14°C° 0.1 mm 5 m/s 739 mmHg 74%
14:00 +15°C° 0.1 mm 5 m/s 739 mmHg 70%
15:00 +15°C° 0.1 mm 5 m/s 739 mmHg 69%
16:00 +15°C° 0.1 mm 5 m/s 739 mmHg 68%
17:00 +15°C° 0.1 mm 4 m/s 739 mmHg 67%
18:00 +14°C° 0 mm 3 m/s 739 mmHg 74%
19:00 +13°C° 0 mm 3 m/s 739 mmHg 80%
20:00 +12°C° 0 mm 2 m/s 739 mmHg 86%
21:00 +12°C° 0 mm 2 m/s 739 mmHg 88%
22:00 +10°C° 0 mm 2 m/s 739 mmHg 89%
23:00 +9°C° 0 mm 2 m/s 739 mmHg 91%

Depois de amanhã, 20 Maio, Quinta-feira

Tempo Temperatura Precipitação Vento Pressão Humidade
00:00 +9°C° 0 mm 2 m/s 739 mmHg 92%
01:00 +8°C° 0 mm 2 m/s 739 mmHg 93%
02:00 +8°C° 0 mm 2 m/s 739 mmHg 94%
03:00 +8°C° 0 mm 3 m/s 739 mmHg 95%
04:00 +7°C° 0 mm 3 m/s 739 mmHg 96%
05:00 +7°C° 0 mm 3 m/s 739 mmHg 96%
06:00 +9°C° 0 mm 3 m/s 740 mmHg 91%
07:00 +10°C° 0 mm 4 m/s 740 mmHg 86%
08:00 +12°C° 0 mm 5 m/s 740 mmHg 81%
09:00 +13°C° 0 mm 5 m/s 740 mmHg 75%
10:00 +14°C° 0 mm 5 m/s 740 mmHg 69%
11:00 +15°C° 0 mm 6 m/s 740 mmHg 63%
12:00 +15°C° 0 mm 6 m/s 740 mmHg 62%
13:00 +16°C° 0 mm 6 m/s 740 mmHg 61%
14:00 +16°C° 0 mm 6 m/s 740 mmHg 60%
15:00 +16°C° 0 mm 6 m/s 741 mmHg 61%
16:00 +16°C° 0 mm 6 m/s 741 mmHg 63%
17:00 +15°C° 0 mm 6 m/s 741 mmHg 64%
18:00 +14°C° 0 mm 5 m/s 741 mmHg 68%
19:00 +12°C° 0 mm 4 m/s 741 mmHg 72%
20:00 +11°C° 0 mm 3 m/s 742 mmHg 76%
21:00 +10°C° 0 mm 3 m/s 742 mmHg 79%
22:00 +10°C° 0 mm 3 m/s 742 mmHg 82%
23:00 +9°C° 0 mm 3 m/s 743 mmHg 84%

21 Maio, Sexta-feira

Tempo Temperatura Precipitação Vento Pressão Humidade
00:00 +9°C° 0 mm 3 m/s 743 mmHg 87%
01:00 +8°C° 0 mm 3 m/s 743 mmHg 89%
02:00 +8°C° 0 mm 3 m/s 744 mmHg 92%
03:00 +7°C° 0 mm 3 m/s 744 mmHg 93%
04:00 +7°C° 0 mm 3 m/s 744 mmHg 94%
05:00 +5°C° 0 mm 3 m/s 745 mmHg 94%
06:00 +8°C° 0 mm 3 m/s 745 mmHg 86%
07:00 +8°C° 0 mm 4 m/s 745 mmHg 77%
08:00 +11°C° 0 mm 4 m/s 745 mmHg 68%
09:00 +12°C° 0 mm 4 m/s 745 mmHg 64%
10:00 +13°C° 0 mm 4 m/s 745 mmHg 60%
11:00 +14°C° 0 mm 4 m/s 745 mmHg 56%
12:00 +15°C° 0 mm 4 m/s 745 mmHg 54%
13:00 +16°C° 0 mm 3 m/s 745 mmHg 52%
14:00 +17°C° 0 mm 3 m/s 745 mmHg 50%
15:00 +17°C° 0 mm 3 m/s 745 mmHg 50%
16:00 +17°C° 0 mm 2 m/s 745 mmHg 50%
17:00 +17°C° 0 mm 2 m/s 745 mmHg 50%
18:00 +16°C° 0 mm 1 m/s 745 mmHg 53%
19:00 +14°C° 0 mm 1 m/s 745 mmHg 57%
20:00 +12°C° 0 mm 0 m/s 745 mmHg 61%
21:00 +12°C° 0 mm 1 m/s 745 mmHg 63%
22:00 +12°C° 0 mm 1 m/s 745 mmHg 64%
23:00 +11°C° 0 mm 1 m/s 745 mmHg 65%

22 Maio, Sábado

Tempo Temperatura Precipitação Vento Pressão Humidade
00:00 +9°C° 0 mm 2 m/s 745 mmHg 69%
01:00 +8°C° 0 mm 2 m/s 745 mmHg 72%
02:00 +7°C° 0 mm 3 m/s 744 mmHg 75%
03:00 +7°C° 0 mm 3 m/s 744 mmHg 78%
04:00 +7°C° 0 mm 3 m/s 744 mmHg 81%
05:00 +7°C° 0 mm 3 m/s 744 mmHg 84%
06:00 +9°C° 0 mm 3 m/s 744 mmHg 80%
07:00 +11°C° 0 mm 4 m/s 744 mmHg 76%
08:00 +12°C° 0 mm 4 m/s 744 mmHg 72%
09:00 +14°C° 0 mm 5 m/s 744 mmHg 67%
10:00 +15°C° 0 mm 5 m/s 743 mmHg 62%
11:00 +17°C° 0 mm 5 m/s 743 mmHg 57%
12:00 +19°C° 0 mm 5 m/s 743 mmHg 55%
13:00 +19°C° 0 mm 5 m/s 743 mmHg 52%
14:00 +20°C° 0 mm 4 m/s 742 mmHg 50%
15:00 +20°C° 0 mm 4 m/s 742 mmHg 53%
16:00 +20°C° 0 mm 3 m/s 742 mmHg 55%
17:00 +20°C° 0 mm 3 m/s 741 mmHg 58%
18:00 +19°C° 0 mm 3 m/s 741 mmHg 64%
19:00 +17°C° 0 mm 3 m/s 741 mmHg 71%
20:00 +15°C° 0 mm 4 m/s 741 mmHg 77%
21:00 +14°C° 0 mm 4 m/s 741 mmHg 78%
22:00 +14°C° 0 mm 4 m/s 741 mmHg 79%
23:00 +13°C° 0 mm 4 m/s 741 mmHg 80%

23 Maio, Domingo

Tempo Temperatura Precipitação Vento Pressão Humidade
00:00 +13°C° 0.1 mm 4 m/s 741 mmHg 81%
01:00 +13°C° 0.1 mm 4 m/s 741 mmHg 82%
02:00 +13°C° 0.1 mm 5 m/s 741 mmHg 83%
03:00 +12°C° 0.6 mm 4 m/s 741 mmHg 87%
04:00 +12°C° 0.6 mm 4 m/s 741 mmHg 91%
05:00 +12°C° 0.6 mm 4 m/s 741 mmHg 95%
06:00 +11°C° 1.4 mm 3 m/s 741 mmHg 94%
07:00 +11°C° 1.4 mm 3 m/s 742 mmHg 93%
08:00 +11°C° 1.4 mm 3 m/s 742 mmHg 92%
09:00 +13°C° 0 mm 4 m/s 742 mmHg 82%
10:00 +14°C° 0 mm 4 m/s 743 mmHg 72%
11:00 +17°C° 0 mm 4 m/s 743 mmHg 62%
12:00 +18°C° 0 mm 4 m/s 743 mmHg 58%
13:00 +19°C° 0 mm 4 m/s 743 mmHg 54%
14:00 +19°C° 0 mm 4 m/s 743 mmHg 50%
15:00 +19°C° 0 mm 4 m/s 743 mmHg 53%
16:00 +19°C° 0 mm 4 m/s 743 mmHg 55%
17:00 +19°C° 0 mm 3 m/s 743 mmHg 58%
18:00 +18°C° 0 mm 3 m/s 743 mmHg 63%
19:00 +16°C° 0 mm 3 m/s 743 mmHg 68%
20:00 +15°C° 0 mm 2 m/s 743 mmHg 73%
21:00 +14°C° 0 mm 2 m/s 743 mmHg 73%
22:00 +14°C° 0 mm 2 m/s 743 mmHg 73%
23:00 +13°C° 0 mm 2 m/s 744 mmHg 73%
Mostrar mais

Necessitamos do seu Consentimento

A Meteoprog e os seus Fornecedores de Serviços podem armazenar e aceder a dados pessoais como cookies, identificadores do dispositivo ou outras tecnologias semelhantes existentes no seu dispositivo e processar estes dados para personalizar conteúdos e anúncios, assim como funcionalidades nas redes sociais e análise de tráfego.

  • Armazenar e/ou aceder a informações no seu dispositivo

    Os cookies, identificadores do dispositivo ou outras informações podem ser armazenados ou acedidos no seu dispositivo, para os fins acima indicados.

  • Anúncios e conteúdos personalizados, medição de anúncios e conteúdos, dados sobre o público-alvo e desenvolvimento de produtos

    Os anúncios e os conteúdos podem ser personalizados com base num perfil. Podem ser adicionados dados adicionais para uma maior personalização dos anúncios e dos conteúdos. A eficácia dos anúncios e dos conteúdos pode ser medida. Podem ser obtidas informações sobre o público que visualizou os anúncios e os conteúdos. Estes dados podem ser usados para desenvolver ou melhorar sistemas, softwares ou a experiência do utilizador.

Ao clicar em "Eu concordo”, permitirá o uso de cookies, identificadores do dispositivo e web beacons mencionados ou outras tecnologias semelhantes. As configurações do navegador do seu dispositivo podem ser alteradas.

Para certos fins, podem ser invocados interesses legítimos ao invés de consentimento. Pode ler mais informação sobre este assunto na nossa Política de Privacidade e Cookies.